Location: Coopersdale
(40.3556°N, 78.9372°W)
Time: 00:58:21
(UTC+00:00)

Transit 4A - Pass Details

Date: 24 January 2021
Orbit: 867 x 978 km, 66.8° (Epoch: 07 March)

Event Time Altitude Azimuth Distance (km) Brightness Sun altitude
Rises 11:15:11 0° 307° (NW) 3,585 - -14.6°
Reaches altitude 10° 11:20:33 10° 268° (W) 2,598 - -13.6°
Maximum altitude 11:21:22 10° 261° (W) 2,571 - -13.4°
Drops below altitude 10° 11:22:10 10° 253° (WSW) 2,585 - -13.3°
Exits shadow 11:22:59 - 245° (WSW) 2,638 9.8 -13.1°
Sets 11:27:27 0° 213° (SSW) 3,485 10.7 -12.3°
